Location: Poughquag
(41.6090°N, 73.6820°W)
Time: 14:56:53
(UTC-04:00)

Courier 1B - Pass Details

Date: 29 May 2020
Orbit: 962 x 1209 km, 28.3° (Epoch: 05 July)

Event Time Altitude Azimuth Distance (km) Brightness Sun altitude
Exits shadow 01:42:35 18° 129° (SE) 2,588 9.4 -25.6°
Drops below altitude 10° 01:44:58 10° 115° (ESE) 3,142 10.0 -25.5°
Sets 01:48:21 0° 103° (ESE) 4,102 10.8 -25.4°
